sat.trackr.live / text

‹ back to catalog

KUIPER-00037

NORAD 63749 · 2025-088AB

PAYLOAD ACTIVE UNKNOWN

§ Identity

Operator
Country
US
Launch date
2025-04-28
Launch site
AFETR
Launch vehicle
Mass (kg)
RCS (m²)

External: N2YO · Heavens-Above · Gunter

§ Orbital elements

Epoch: 2026-09-21T20:13:03.225216Z

Period
97.30 min
Inclination
51.9035°
Eccentricity
0.0000467
Mean motion
14.79926518 rev/d
Perigee alt
629.2 km
Apogee alt
629.9 km
Semi-major
7,007.7 km
B*
-1.3167e-4
RAAN
324.5624°
Arg perigee
43.4189°
Mean anomaly
316.6811°
Rev number
7,737

§ Raw data

KUIPER-000371 63749U 25088AB  26264.84239844 -.00001224  00000+0 -13167-3 0  99952 63749  51.9035 324.5624 0000467  43.4189 316.6811 14.79926518 77378

JSON: /api/v1/satellites/63749 · /tle

For live sub-satellite position, see the globe view (requires WebGL).

§ Visibility from observer

Set your observer location to see the next 7 days of passes ≥ 10°. The values pass through the URL so the page stays shareable.

No JS? Fill the form by hand. The geolocation button needs JavaScript.